Satellite: NOAA-17
Catalog number: 27453
Epoch time:      12193.88854791
Element set:    0768
Inclination:      098.3350 deg
RA of node:       219.6769 deg
Eccentricity:    0.0012848
Arg of perigee:   084.8481 deg
Mean anomaly:     275.4154 deg
Mean motion:   14.24457241 rev/day
Decay rate:       3.09e-06 rev/day^2
Epoch rev:           52227
Checksum:              342

Satellite: NOAA-18
Catalog number: 28654
Epoch time:      12193.87282602
Element set:    0249
Inclination:      099.0471 deg
RA of node:       152.1675 deg
Eccentricity:    0.0015272
Arg of perigee:   085.5023 deg
Mean anomaly:     274.7915 deg
Mean motion:   14.11672742 rev/day
Decay rate:       4.39e-06 rev/day^2
Epoch rev:           36804
Checksum:              314

Satellite: NOAA-19
Catalog number: 33591
Epoch time:      12193.88618826
Element set:    0439
Inclination:      098.8633 deg
RA of node:       133.3692 deg
Eccentricity:    0.0013493
Arg of perigee:   314.7744 deg
Mean anomaly:     045.2347 deg
Mean motion:   14.11360431 rev/day
Decay rate:       4.67e-06 rev/day^2
Epoch rev:           17649
Checksum:              327

/EX
SB KEPS @ AMSAT  $ORB12194.M
Orbital Elements  12194.MISC

HR AMSAT ORBITAL ELEMENTS FOR MANNED AND MISCELLANEOUS SATELLITES
FROM WA5QGD FORT WORTH,TX July 12, 2012
Send SUBSCRIBE KEPS/UNSUBSCRIBE KEPS to majordomo@amsat.org only
BID: ORB12194.M
TO ALL RADIO AMATEURS BT

Satellite: HUBBLE
Catalog number: 20580
Epoch time:      12193.03576048
Element set:      32
Inclination:      028.4712 deg
RA of node:       347.4631 deg
Eccentricity:    0.0003127
Arg of perigee:   316.5196 deg
Mean anomaly:     043.5274 deg
Mean motion:   15.02610750 rev/day
Decay rate:      1.824e-05 rev/day^2
Epoch rev:            1832
Checksum:              254

Satellite: ISS
Catalog number: 25544
Epoch time:      12194.96999841
Element set:     915
Inclination:      051.6411 deg
RA of node:       353.5041 deg
Eccentricity:    0.0007507
Arg of perigee:   147.7076 deg
Mean anomaly:     353.7040 deg
Mean motion:   15.56107188 rev/day
Decay rate:     1.2478e-04 rev/day^2
Epoch rev:           78202
Checksum:              309

Satellite: CO-58
Catalog number: 28895
Epoch time:      12193.67573780
Element set:     223
Inclination:      097.9094 deg
RA of node:       058.8676 deg
Eccentricity:    0.0019056
Arg of perigee:   076.8021 deg
Mean anomaly:     283.5314 deg
Mean motion:   14.60671249 rev/day
Decay rate:       6.98e-06 rev/day^2
Epoch rev:           35723
Checksum:              353

Satellite: FALCON
Catalog number: 30776
Epoch time:      12194.81749567
Element set:     388
Inclination:      035.4280 deg
RA of node:       120.2726 deg
Eccentricity:    0.0001848
Arg of perigee:   269.0052 deg
Mean anomaly:     091.0465 deg
Mean motion:   15.07726910 rev/day
Decay rate:      4.189e-05 rev/day^2
Epoch rev:           29412
Checksum:              304

Satellite: MAST
Catalog number: 31126
Epoch time:      12193.92499888
Element set:    0507
Inclination:      097.8737 deg
RA of node:       203.5776 deg
Eccentricity:    0.0094643
Arg of perigee:   034.1038 deg
Mean anomaly:     326.6194 deg
Mean motion:   14.54193664 rev/day
Decay rate:       6.69e-06 rev/day^2
Epoch rev:           27786
Checksum:              348

Satellite: CAPE1
Catalog number: 31130
Epoch time:      12194.53258688
Element set:     514
Inclination:      097.8821 deg
RA of node:       200.5164 deg
Eccentricity:    0.0102358
Arg of perigee:   045.4934 deg
Mean anomaly:     315.4566 deg
Mean motion:   14.52984161 rev/day
Decay rate:      1.010e-05 rev/day^2
Epoch rev:           27745
Checksum:              288

Satellite: COMPASS
Catalog number: 32787
Epoch time:      12193.61153704
Element set:    0352
Inclination:      097.7977 deg
RA of node:       254.4062 deg
Eccentricity:    0.0014644
Arg of perigee:   345.2751 deg
Mean anomaly:     014.8044 deg
Mean motion:   14.84102521 rev/day
Decay rate:      2.684e-05 rev/day^2
Epoch rev:           22743
Checksum:              290

Satellite: AAUSAT2
Catalog number: 32788
Epoch time:      12194.65432432
Element set:     344
Inclination:      097.7991 deg
RA of node:       255.8215 deg
Eccentricity:    0.0014451
Arg of perigee:   342.8555 deg
Mean anomaly:     017.2184 deg
Mean motion:   14.84433833 rev/day
Decay rate:      2.267e-05 rev/day^2
Epoch rev:           22761
Checksum:              311

Satellite: DO-64
Catalog number: 32789
Epoch time:      12193.86767579
Element set:     359
Inclination:      097.8098 deg
RA of node:       257.1677 deg
Eccentricity:    0.0013552
Arg of perigee:   341.7221 deg
Mean anomaly:     018.3572 deg
Mean motion:   14.85986722 rev/day
Decay rate:      4.190e-05 rev/day^2
Epoch rev:           22754
Checksum:              360

Satellite: CO-66
Catalog number: 32791
Epoch time:      12194.62262455
Element set:     343
Inclination:      097.7977 deg
RA of node:       255.1153 deg
Eccentricity:    0.0015267
Arg of perigee:   341.6312 deg
Mean anomaly:     018.4325 deg
Mean motion:   14.83505960 rev/day
Decay rate:      2.198e-05 rev/day^2
Epoch rev:           22751
Checksum:              312

